| time (UTC) | temp C | wind direction | speed KPH | gust KPH | rain 1hr cm | rain 24hr cm | rain mn cm | humidity % | barometer mb |
| 20260901041611 | 25 | 167 | 0.0 | 4.8 | 0.00 | 0.69 | 0.69 | 87 | 1012.9 |
| 20260901040100 | 25 | 150 | 0.0 | 1.6 | 0.00 | 0.69 | 0.69 | 86 | 1013.0 |
| 20260901034600 | 25 | 192 | 0.0 | 1.6 | 0.00 | 0.69 | 0.69 | 86 | 1013.1 |
| 20260901033101 | 26 | 122 | 0.0 | 4.8 | 0.00 | 0.69 | 0.69 | 85 | 1013.0 |
| 20260901031605 | 26 | 165 | 0.0 | 3.2 | 0.00 | 0.69 | 0.69 | 86 | 1013.1 |
| 20260901030058 | 25 | 225 | 0.0 | 0.0 | 0.00 | 0.69 | 0.69 | 86 | 1013.1 |
| 20260901024558 | 25 | 117 | 0.0 | 1.6 | 0.00 | 0.71 | 0.69 | 86 | 1013.1 |
| 20260901023057 | 25 | 144 | 0.0 | 1.6 | 0.00 | 0.71 | 0.69 | 86 | 1013.1 |
| 20260901021556 | 25 | 146 | 0.0 | 0.0 | 0.00 | 0.71 | 0.69 | 86 | 1013.6 |
| 20260901020055 | 26 | 146 | 0.0 | 0.0 | 0.00 | 0.71 | 0.69 | 84 | 1013.3 |
| 20260901014600 | 26 | 146 | 0.0 | 0.0 | 0.00 | 0.71 | 0.69 | 83 | 1013.1 |
| 20260901013057 | 26 | 238 | 0.0 | 3.2 | 0.00 | 0.71 | 0.69 | 82 | 1012.8 |
| 20260901011556 | 26 | 167 | 0.0 | 1.6 | 0.00 | 0.71 | 0.69 | 81 | 1012.8 |
| 20260901010054 | 26 | 141 | 0.0 | 4.8 | 0.00 | 0.71 | 0.69 | 80 | 1012.7 |
| 20260901004553 | 27 | 143 | 0.0 | 4.8 | 0.00 | 0.71 | 0.69 | 78 | 1012.9 |
| 20260901003053 | 27 | 143 | 1.6 | 6.4 | 0.00 | 0.71 | 0.69 | 76 | 1013.1 |
| 20260901001558 | 28 | 139 | 1.6 | 3.2 | 0.00 | 0.71 | 0.69 | 75 | 1012.9 |
| 20260901000056 | 28 | 169 | 0.0 | 4.8 | 0.00 | 0.71 | 0.69 | 76 | 1012.5 |
| 20260831234613 | 27 | 150 | 0.0 | 4.8 | 0.00 | 0.71 | 0.69 | 77 | 1012.2 |
| 20260831233103 | 28 | 118 | 0.0 | 6.4 | 0.00 | 0.71 | 0.69 | 79 | 1011.7 |
| 20260831231548 | 28 | 130 | 1.6 | 6.4 | 0.00 | 0.71 | 0.69 | 74 | 1013.1 |
| 20260831230047 | 28 | 209 | 0.0 | 6.4 | 0.00 | 0.71 | 0.69 | 73 | 1012.7 |
| 20260831224548 | 29 | 162 | 1.6 | 6.4 | 0.00 | 0.76 | 0.69 | 71 | 1012.4 |
| 20260831223047 | 29 | 162 | 0.0 | 3.2 | 0.00 | 0.76 | 0.69 | 71 | 1012.5 |
| 20260831221546 | 29 | 136 | 0.0 | 3.2 | 0.00 | 0.76 | 0.69 | 69 | 1012.6 |
| 20260831220046 | 30 | 158 | 0.0 | 4.8 | 0.00 | 0.76 | 0.69 | 68 | 1012.5 |
| 20260831214551 | 30 | 145 | 1.6 | 4.8 | 0.00 | 0.79 | 0.69 | 67 | 1012.3 |
| 20260831213044 | 29 | 158 | 4.8 | 9.7 | 0.00 | 0.79 | 0.69 | 68 | 1012.1 |
| 20260831211544 | 30 | 142 | 3.2 | 11.3 | 0.00 | 0.79 | 0.69 | 69 | 1012.0 |
| 20260831210045 | 30 | 105 | 1.6 | 6.4 | 0.00 | 0.79 | 0.69 | 70 | 1012.1 |
| 20260831204540 | 30 | 127 | 3.2 | 6.4 | 0.00 | 0.81 | 0.69 | 67 | 1012.2 |
| 20260831203038 | 30 | 174 | 1.6 | 6.4 | 0.00 | 0.81 | 0.69 | 66 | 1012.7 |
| 20260831201546 | 30 | 195 | 1.6 | 6.4 | 0.00 | 0.81 | 0.69 | 65 | 1012.8 |
| 20260831200036 | 30 | 357 | 1.6 | 9.7 | 0.00 | 0.81 | 0.69 | 63 | 1012.8 |
| 20260831194534 | 30 | 139 | 4.8 | 14.5 | 0.00 | 0.94 | 0.69 | 66 | 1012.7 |
| 20260831193033 | 30 | 135 | 3.2 | 9.7 | 0.00 | 0.94 | 0.69 | 64 | 1012.6 |
| 20260831191532 | 30 | 161 | 6.4 | 12.9 | 0.00 | 0.94 | 0.69 | 62 | 1012.9 |
| 20260831190032 | 30 | 141 | 6.4 | 17.7 | 0.00 | 0.94 | 0.69 | 62 | 1012.8 |
| 20260831184527 | 30 | 190 | 3.2 | 17.7 | 0.00 | 0.97 | 0.69 | 64 | 1013.0 |
| 20260831183031 | 30 | 143 | 4.8 | 19.3 | 0.00 | 0.97 | 0.69 | 63 | 1013.1 |
| 20260831181525 | 29 | 136 | 4.8 | 20.9 | 0.00 | 0.97 | 0.69 | 65 | 1013.0 |
| 20260831180024 | 28 | 121 | 4.8 | 19.3 | 0.00 | 0.97 | 0.69 | 68 | 1012.9 |
| 20260831174521 | 28 | 155 | 4.8 | 12.9 | 0.00 | 0.97 | 0.69 | 65 | 1013.3 |
| 20260831173017 | 27 | 166 | 4.8 | 16.1 | 0.00 | 0.97 | 0.69 | 67 | 1013.4 |
| 20260831171513 | 27 | 122 | 4.8 | 16.1 | 0.00 | 0.97 | 0.69 | 69 | 1013.6 |
| 20260831170012 | 26 | 131 | 4.8 | 14.5 | 0.00 | 0.97 | 0.69 | 72 | 1013.7 |
| 20260831164506 | 26 | 134 | 4.8 | 14.5 | 0.00 | 0.97 | 0.69 | 76 | 1013.8 |
| 20260831163001 | 25 | 89 | 3.2 | 19.3 | 0.00 | 0.97 | 0.69 | 78 | 1014.1 |
| 20260831161606 | 24 | 154 | 3.2 | 11.3 | 0.00 | 0.97 | 0.69 | 83 | 1014.1 |
| 20260831160100 | 23 | 122 | 3.2 | 11.3 | 0.00 | 0.97 | 0.69 | 84 | 1014.3 |
| 20260831154558 | 22 | 155 | 1.6 | 11.3 | 0.00 | 0.97 | 0.69 | 89 | 1014.4 |
| 20260831153055 | 21 | 139 | 1.6 | 8.0 | 0.00 | 0.97 | 0.69 | 90 | 1014.4 |
| 20260831151559 | 21 | 103 | 0.0 | 4.8 | 0.00 | 0.97 | 0.69 | 91 | 1014.5 |
| 20260831150057 | 21 | 113 | 0.0 | 4.8 | 0.00 | 0.97 | 0.69 | 91 | 1014.6 |
| 20260831144554 | 21 | 309 | 0.0 | 4.8 | 0.03 | 0.97 | 0.69 | 93 | 1014.7 |
| 20260831143108 | 21 | 105 | 0.0 | 3.2 | 0.03 | 0.97 | 0.69 | 93 | 1014.4 |
| 20260831141559 | 20 | 113 | 0.0 | 1.6 | 0.10 | 0.97 | 0.69 | 93 | 1014.6 |
| 20260831140053 | 20 | 123 | 0.0 | 1.6 | 0.10 | 0.97 | 0.69 | 94 | 1014.5 |
| 20260831134551 | 20 | 133 | 0.0 | 8.0 | 0.15 | 0.94 | 0.66 | 94 | 1014.6 |
| 20260831133050 | 20 | 109 | 0.0 | 1.6 | 0.53 | 0.91 | 0.64 | 94 | 1014.8 |
| 20260831131550 | 20 | 105 | 0.0 | 1.6 | 0.58 | 0.86 | 0.58 | 93 | 1014.5 |
| 20260831130053 | 20 | 83 | 0.0 | 3.2 | 0.58 | 0.86 | 0.58 | 93 | 1014.5 |
| 20260831124547 | 20 | 159 | 0.0 | 3.2 | 0.51 | 1.09 | 0.51 | 91 | 1014.6 |
| 20260831123041 | 21 | 164 | 0.0 | 4.8 | 0.10 | 0.69 | 0.10 | 87 | 1015.0 |
| 20260831121539 | 21 | 217 | 0.0 | 0.0 | 0.00 | 0.58 | 0.00 | 83 | 1014.5 |
| 20260831120035 | 22 | 174 | 0.0 | 0.0 | 0.00 | 0.58 | 0.00 | 81 | 1014.0 |
| 20260831114546 | 22 | 168 | 0.0 | 3.2 | 0.00 | 0.69 | 0.00 | 80 | 1013.6 |
| 20260831113034 | 22 | 137 | 0.0 | 3.2 | 0.00 | 0.69 | 0.00 | 80 | 1013.5 |
| 20260831111537 | 22 | 146 | 0.0 | 4.8 | 0.00 | 0.69 | 0.00 | 79 | 1013.5 |
| 20260831110032 | 22 | 336 | 0.0 | 6.4 | 0.00 | 0.69 | 0.00 | 80 | 1013.3 |
| 20260831104539 | 22 | 150 | 0.0 | 6.4 | 0.00 | 0.69 | 0.00 | 80 | 1013.3 |
| 20260831103037 | 22 | 143 | 1.6 | 6.4 | 0.00 | 0.69 | 0.00 | 80 | 1013.3 |
| 20260831101541 | 22 | 217 | 0.0 | 3.2 | 0.00 | 0.69 | 0.00 | 80 | 1013.5 |
| 20260831100030 | 22 | 163 | 0.0 | 4.8 | 0.00 | 0.69 | 0.00 | 79 | 1013.3 |
| 20260831094535 | 22 | 167 | 0.0 | 6.4 | 0.00 | 0.69 | 0.00 | 79 | 1013.1 |
| 20260831093031 | 22 | 108 | 0.0 | 4.8 | 0.00 | 0.69 | 0.00 | 80 | 1013.2 |
| 20260831091538 | 22 | 156 | 0.0 | 6.4 | 0.00 | 0.69 | 0.00 | 80 | 1013.5 |
| 20260831090028 | 22 | 148 | 0.0 | 6.4 | 0.00 | 0.69 | 0.00 | 81 | 1013.3 |
| 20260831084527 | 22 | 146 | 0.0 | 4.8 | 0.00 | 0.69 | 0.00 | 83 | 1013.4 |
| 20260831083025 | 22 | 158 | 0.0 | 3.2 | 0.00 | 0.69 | 0.00 | 83 | 1013.5 |
| 20260831081524 | 22 | 128 | 0.0 | 1.6 | 0.00 | 0.69 | 0.00 | 84 | 1013.4 |
| 20260831080027 | 22 | 124 | 0.0 | 3.2 | 0.00 | 0.69 | 0.00 | 84 | 1013.4 |
| 20260831074521 | 22 | 105 | 0.0 | 1.6 | 0.00 | 0.69 | 0.00 | 83 | 1013.5 |
| 20260831073019 | 22 | 134 | 0.0 | 3.2 | 0.00 | 0.69 | 0.00 | 81 | 1013.6 |
| 20260831071517 | 22 | 97 | 0.0 | 1.6 | 0.00 | 0.69 | 0.00 | 83 | 1013.7 |
| 20260831070015 | 22 | 136 | 0.0 | 1.6 | 0.00 | 0.69 | 0.00 | 83 | 1013.6 |
| 20260831064514 | 23 | 134 | 0.0 | 3.2 | 0.00 | 0.69 | 0.00 | 82 | 1013.7 |
| 20260831063012 | 23 | 142 | 0.0 | 6.4 | 0.00 | 0.69 | 0.00 | 82 | 1013.7 |
| 20260831061516 | 23 | 129 | 0.0 | 6.4 | 0.00 | 0.69 | 0.00 | 81 | 1013.5 |
| 20260831060010 | 23 | 137 | 1.6 | 8.0 | 0.00 | 0.69 | 0.00 | 81 | 1013.5 |
| 20260831054510 | 23 | 150 | 1.6 | 11.3 | 0.00 | 0.69 | 0.00 | 81 | 1013.4 |
| 20260831053005 | 23 | 167 | 4.8 | 16.1 | 0.00 | 0.69 | 0.00 | 81 | 1013.4 |
| 20260831051506 | 23 | 128 | 4.8 | 14.5 | 0.00 | 0.69 | 0.00 | 82 | 1013.2 |
| 20260831050100 | 23 | 131 | 4.8 | 16.1 | 0.00 | 0.69 | 0.00 | 85 | 1013.2 |
| 20260831044620 | 23 | 177 | 4.8 | 12.9 | 0.00 | 0.69 | 0.69 | 88 | 1013.3 |
| 20260831043056 | 22 | 117 | 3.2 | 8.0 | 0.00 | 0.69 | 0.69 | 92 | 1013.5 |